Presure
128 126 124 123 141 176 157 202 131 123 219 129 134 165 223 147 97 162 105 82 193 158 179 176 175 108 162 186 185 183 178 104 102 139 135 121 165 144 96 97 100 103 103
141 146 156 126 144 173 184 136 145 127 127 127 190 230 191 182 199 148 141 211 194 193 191 83 157 96 180 124 167 183 195 150 178 150 103 157 153 127 120 146 110 129 158
124 129 179 179 172 163 149 178 187 180 162 119 188 136 188 221 157 195 170 135 116 207 150 128 187 197 187 175 83 180 179 179 154 91 173 163 89 139 189 163 136 118 135
174 123 184 187 183 187 184 175 186 171 175 180 140 173 123 179 217 180 210 152 187 202 192 140 142 158 154 197 195 190 184 183 126 192 182 87 171 177 159 175 165 142 150
182 179 170 173 182 180 143 182 188 182 187 183 186 170 184 132 133 138 164 210 203 194 126 187 171 189 191 193 191 182 186 191 190 187 190 203 184 177 176 127 183 178 180
183 180 181 183 176 183 181 187 175 174 181 187 182 192 185 171 160 165 146 153 180 193 214 190 226 216 207 204 217 226 215 233 204 200 194 191 193 206 210 205 177 178 177
173 182 182 182 182 182 189 191 189 180 176 183 189 183 155 170 189 174 170 174 135 162 177 167 165 146 142 189 182 183 185 196 243 249 254 215 218 202 198 193 201 203 185
185 189 189 186 187 184 183 183 187 190 187 175 175 186 188 179 176 179 182 179 173 171 171 169 152 181 164 175 190 191 190 162 180 187 210 251 253 248 245 205 196 201 197
191 191 192 188 191 192 190 183 184 189 182 187 190 198 194 188 186 193 191 177 183 181 181 167 171 143 158 166 175 167 164 112 191 177 184 157 197 228 244 259 244 232 214
217 214 209 200 198 192 190 190 187 189 187 191 184 188 196 197 193 189 183 189 189 190 184 187 193 184 209 170 178 190 162 167 170 166 171 174 176 176 188 202 232 232 232
186 199 209 210 220 213 212 199 199 197 200 194 193 198 201 194 197 196 190 183 184 189 189 184 184 203 205 208 210 205 206 206 164 152 133 209 198 188 128 175 185 222 222
196 197 189 197 199 197 201 199 205 214 212 207 209 201 204 200 199 201 199 199 201 195 207 202 204 202 204 206 206 208 207 211 210 203 202 183 172 186 184 182 170 177 182
191 183 185 185 184 181 181 188 205 206 198 191 193 194 197 198 199 201 202 201 203 202 196 193 198 186 202 221 212 219 220 220 210 206 228 222 207 177 181 193 159 190 170
197 203 202 204 201 200 201 201 200 208 208 188 208 206 209 200 198 193 187 187 190 180 178 183 193 202 215 208 179 192 222 205 184 227 226 229 219 212 187 169 169 193 185
195 201 213 217 218 217 214 213 211 202 197 203 197 209 199 195 202 206 212 210 211 211 198 213 207 197 194 188 186 190 201 203 199 216 215 216 221 213 212 207 197 200 196
209 217 222 194 192 200 203 203 204 216 214 201 198 194 194 196 195 193 196 193 193 190 192 197 200 206 203 200 200 188 185 186 180 202 206 205 214 208 201 225 210 197 196
216 215 220 224 238 226 213 211 221 228 217 218 212 212 213 212 214 213 206 199 200 201 199 198 195 191 190 199 211 204 198 190 190 195 188 200 199 206 204 200 195 201 215
222 216 215 227 239 250 247 175 217 221 230 230 225 224 236 241 224 212 211 215 216 213 207 203 203 203 208 208 200 204 209 202 203 201 193 195 201 187 195 198 198 200 199
218 223 223 223 217 247 252 251 231 247 224 223 217 226 229 237 243 246 250 248 241 241 242 232 217 225 223 215 217 215 202 197 203 203 200 202 194 197 191 185 192 195 194
230 226 239 241 228 229 235 231 235 270 226 244 244 242 224 221 233 253 235 225 200 239 251 249 245 220 223 222 239 228 225 217 209 206 209 205 203 203 193 195 198 196 193
231 223 219 226 225 217 214 214 213 215 228 217 259 275 230 250 262 254 236 231 230 239 212 206 203 233 239 234 205 203 213 239 231 226 221 216 213 212 205 208 202 192 192
235 233 233 230 229 231 238 251 278 278 258 239 237 236 235 233 235 228 230 225 240 245 251 252 256 265 264 254 247 252 253 236 246 230 246 239 231 227 222 216 214 207 205
321 321 314 298 292 275 179 279 273 281 308 335 292 284 294 284 280 278 244 274 279 277 276 274 274 273 253 250 261 266 269 262 254 257 259 256 253 251 249 244 235 226 220
229 229 230 231 260 282 314 295 277 265 258 253 257 251 248 300 344 335 331 330 327 328 324 319 277 307 299 305 299 280 283 285 244 271 264 271 268 253 244 237 260 254 255
280 275 269 257 252 253 254 261 273 289 296 289 278 278 283 275 276 275 281 288 290 313 247 232 244 298 296 291 290 292 287 287 280 281 288 295 296 300 299 299 261 228 236
252 250 250 247 243 242 243 245 242 241 241 243 245 247 249 256 256 255 252 252 252 252 255 255 255 256 258 261 263 265 264 264 275 282 281 285 284 260 243 252 282 290 292
Wind_Speed
67 65 65 64 64 60 68 49 61 55 48 54 53 57 71 56 49 62 55 40 78 68 69 66 66 53 69 70 69 71 72 56 52 73 70 63 76 75 49 48 47 47 47
67 65 70 70 65 64 56 61 69 63 60 57 57 76 69 67 67 60 58 75 80 79 81 47 70 51 74 60 79 71 77 63 75 67 54 78 71 66 62 79 58 64 81
70 72 66 67 71 73 70 66 58 66 72 61 59 63 70 78 70 71 69 59 60 77 67 57 82 85 85 73 54 80 75 79 69 55 77 74 55 69 80 77 75 65 68
74 75 68 66 67 64 66 74 63 75 73 67 74 65 64 68 81 75 85 68 77 81 77 62 62 69 70 88 85 87 85 83 68 91 83 58 82 80 90 80 91 82 86
76 75 77 75 71 72 78 69 64 68 65 69 66 77 66 70 69 68 69 87 88 83 66 78 76 77 83 89 86 83 90 96 97 90 87 95 92 87 85 69 93 85 82
78 77 76 75 76 74 75 71 77 78 73 69 73 69 72 80 85 80 74 74 76 77 76 79 81 78 74 72 66 80 91 94 109 102 99 89 91 98 92 96 87 88 85
83 82 81 80 80 79 77 76 77 79 81 76 73 77 82 85 76 82 85 81 75 82 80 84 84 73 71 78 78 75 77 78 64 68 73 99 97 96 95 91 94 97 94
83 82 82 82 81 81 82 81 80 80 80 84 85 80 80 85 88 85 84 84 87 89 89 86 86 84 88 83 81 80 80 75 79 80 74 64 71 77 86 92 93 95 99
81 81 82 82 83 84 84 84 84 83 84 84 84 83 84 87 88 86 87 90 89 89 88 92 92 86 89 87 86 87 88 79 83 82 81 76 75 67 64 66 77 84 93
83 86 89 88 88 88 87 86 86 87 87 87 85 86 87 89 90 91 92 91 90 89 92 93 92 92 88 94 92 91 95 94 90 90 85 84 82 79 77 74 66 68 73
79 80 84 85 87 89 92 90 91 91 91 91 90 91 90 90 91 93 94 95 95 95 95 95 95 91 88 86 87 89 89 91 99 91 83 84 85 84 84 84 80 72 71
83 84 84 85 86 86 87 88 90 92 93 92 93 91 92 93 93 95 97 97 96 97 92 92 91 91 88 88 88 89 91 91 91 93 91 91 92 89 85 84 89 85 81
85 85 84 85 87 88 88 87 90 92 92 90 90 91 92 93 93 95 95 95 94 93 92 92 92 90 91 87 87 85 86 87 86 89 83 86 93 94 91 86 83 84 89
88 92 92 94 93 91 91 91 90 90 91 91 94 94 96 96 96 96 95 95 96 94 93 95 96 93 88 89 87 86 83 86 88 84 84 86 89 91 95 96 95 89 88
89 91 97 99 100 100 100 100 99 93 92 92 93 94 93 93 95 97 99 100 100 100 102 98 99 99 97 96 96 93 89 87 88 84 84 85 87 88 89 90 90 90 90
100 100 102 94 93 96 95 95 95 100 102 98 98 98 99 99 98 98 98 99 99 99 98 98 99 99 100 101 101 100 98 96 92 89 87 87 87 91 92 89 91 92 92
101 100 101 104 105 107 103 102 105 105 103 104 103 104 104 105 106 108 107 105 105 105 105 105 105 104 104 103 104 104 103 103 101 98 97 95 94 91 92 94 96 94 92
102 101 102 104 106 108 109 79 105 104 107 108 107 107 112 115 111 108 109 111 112 112 110 109 110 110 111 111 109 107 107 107 106 105 104 102 100 100 98 99 99 97 96
102 102 102 102 101 108 109 111 107 112 105 105 103 107 109 111 112 113 114 114 115 116 117 118 114 117 118 116 116 115 111 110 111 110 109 109 107 106 106 102 102 103 103
103 102 105 104 104 105 106 106 107 110 106 110 112 113 108 107 111 117 112 110 106 113 118 118 119 113 114 115 119 120 121 119 116 115 116 115 114 113 111 110 110 110 107
99 98 97 99 99 100 101 103 104 105 106 107 111 114 109 114 115 114 116 113 112 117 110 111 113 117 119 118 116 115 117 124 125 124 123 121 121 120 118 120 119 112 111
99 99 100 100 100 101 103 105 111 111 108 107 108 109 110 112 113 113 114 113 116 117 120 122 124 126 130 129 127 128 130 124 128 123 130 130 128 128 128 126 125 124 124
97 94 94 96 98 101 78 103 104 105 106 101 113 115 119 121 121 121 116 122 123 124 124 125 125 125 123 124 128 130 132 131 130 133 130 132 134 134 135 133 132 131 130
97 98 99 101 96 95 93 98 102 105 107 109 109 110 111 104 103 108 111 111 111 111 112 114 114 117 119 119 120 122 122 122 122 129 130 133 136 131 129 128 136 135 136
84 85 87 90 93 93 94 93 93 94 98 101 104 104 103 105 106 105 104 104 104 102 115 116 116 109 111 114 114 115 114 114 116 117 119 118 121 121 125 126 133 126 128
90 92 93 94 96 97 98 99 99 99 101 103 102 104 105 106 108 108 109 110 110 113 113 113 113 112 113 113 114 113 113 114 114 115 120 117 118 123 124 125 124 123 123
Wind_Direction
256 257 259 261 254 241 250 240 258 249 243 248 252 249 246 240 248 249 254 253 252 253 255 255 255 255 242 257 255 254 253 249 248 256 256 253 258 259 247 248 250 250 249
251 253 250 257 255 247 247 247 256 256 254 250 243 237 241 248 243 254 254 243 248 249 250 253 252 251 260 257 255 260 268 251 257 254 247 259 260 256 255 262 250 260 261
251 255 246 249 247 249 252 246 248 242 249 256 240 256 244 239 252 248 251 255 241 251 250 252 255 254 251 258 255 262 261 262 258 245 259 261 249 257 267 257 261 255 261
251 252 249 248 250 250 249 250 251 248 246 249 258 245 244 247 238 245 244 256 251 252 253 255 256 255 254 259 258 258 263 262 258 262 262 248 258 265 258 264 256 264 264
251 251 255 252 249 249 250 251 251 251 251 249 249 253 247 252 250 247 252 245 248 250 248 255 258 257 260 261 260 259 264 264 266 263 264 263 263 264 266 264 267 268 269
251 251 251 250 253 250 251 250 251 252 251 251 251 251 249 248 254 252 259 257 249 249 249 252 253 254 257 254 256 259 260 261 259 261 264 263 264 265 262 262 266 267 267
253 251 251 251 251 251 250 250 250 250 251 251 251 252 253 251 249 249 251 250 251 259 252 256 258 260 257 259 257 257 259 263 260 259 257 257 257 262 264 264 264 263 265
250 251 252 252 252 253 253 252 252 252 251 252 253 252 250 252 251 250 250 250 252 253 255 260 263 258 260 260 262 261 259 258 260 263 261 257 256 255 256 261 263 263 265
250 251 252 253 253 254 253 254 254 253 253 254 256 255 253 252 252 250 251 254 254 254 255 257 255 260 262 262 260 260 259 257 260 257 260 257 262 258 258 255 254 257 259
249 249 249 251 251 252 253 253 254 254 255 255 254 255 254 254 253 254 255 254 254 255 255 256 257 258 259 259 260 258 263 260 257 256 258 257 258 259 259 260 261 258 260
251 251 251 251 250 250 251 253 253 254 255 256 256 256 255 255 255 255 256 256 257 256 256 257 258 258 257 257 258 257 257 257 261 263 253 258 260 259 255 260 261 264 262
251 251 252 253 253 253 253 253 253 253 253 254 253 255 255 254 255 255 256 257 256 256 257 257 259 259 259 259 259 259 259 258 257 256 257 256 256 258 258 259 261 262 261
253 251 251 251 251 252 253 254 254 254 255 255 256 257 257 256 256 256 257 258 258 258 258 260 260 260 260 259 259 259 258 257 256 257 255 252 254 255 257 257 258 257 261
257 256 257 257 256 255 255 256 256 258 256 254 255 256 256 256 257 257 259 260 260 260 261 262 262 260 257 257 260 259 258 257 259 257 256 253 251 251 255 255 257 256 257
257 258 258 257 256 255 255 256 257 256 254 256 254 258 256 255 257 258 258 258 258 258 259 259 259 260 261 262 262 261 258 257 257 256 255 255 253 253 252 252 252 252 252
255 255 254 253 253 254 255 255 256 257 257 254 254 253 254 254 254 255 255 256 256 257 258 259 259 258 258 258 258 261 262 261 261 256 253 253 252 252 253 252 253 252 251
253 253 253 254 256 255 256 257 256 256 255 255 255 256 256 256 256 257 256 256 257 257 257 257 257 257 258 258 257 256 256 260 260 257 259 253 252 250 250 251 251 253 254
254 254 255 258 258 258 257 257 258 258 256 255 256 256 257 257 258 256 255 256 256 256 256 256 257 258 258 258 257 257 256 257 255 254 257 256 253 258 253 252 252 252 253
255 257 259 257 258 259 259 259 258 258 258 258 258 258 257 258 259 259 259 258 257 258 257 257 257 258 257 257 257 256 256 256 255 255 255 253 256 254 256 259 256 255 255
256 256 258 257 257 258 258 259 258 256 260 258 258 259 260 260 259 258 259 257 256 259 258 257 256 257 257 257 256 255 255 255 255 255 254 254 254 254 256 256 254 256 256
257 257 257 258 257 255 256 256 257 258 259 259 261 261 258 258 258 259 260 261 260 260 256 256 256 259 259 258 257 257 257 255 255 255 255 254 254 254 255 254 255 258 258
259 259 259 259 259 260 261 261 262 261 260 259 259 259 259 259 259 259 259 259 259 260 259 258 258 257 257 258 257 257 255 256 256 257 255 255 255 254 254 254 254 255 255
258 258 258 259 259 260 260 260 260 261 260 259 260 261 260 260 260 260 259 261 260 260 259 259 259 259 259 259 258 257 256 257 258 258 256 256 255 255 255 255 255 254 254
260 261 261 261 260 261 259 260 260 260 260 261 261 261 261 260 259 259 260 260 260 260 259 259 258 259 259 259 258 258 257 257 258 258 257 257 257 257 257 257 256 256 255
258 258 257 257 259 259 260 260 260 261 261 261 260 260 260 260 259 259 259 259 259 259 259 259 259 257 257 257 258 257 258 258 258 258 258 257 257 258 258 259 258 256 257
259 260 260 260 261 261 262 261 261 262 262 262 262 261 261 261 261 261 260 261 260 260 260 260 259 259 260 260 260 259 258 258 259 259 259 258 258 258 258 258 258 258 257